Time,TemperatureF,DewpointF,PressureIn,WindDirection,WindDirectionDegrees,WindSpeedMPH,WindSpeedGustMPH,Humidity,HourlyPrecipIn,Conditions,Clouds,dailyrainin,SolarRadiationWatts/m^2,SoftwareType,DateUTC
2013-02-01 00:02:00,10.0,-3.0,-100.00,NW,319,5.0,11.0,56,0.00,,,0.00,0.000000,,2013-02-01 06:02:00,
2013-02-01 00:11:00,10.0,-3.0,-100.00,NW,319,5.0,11.0,56,0.00,,,0.00,0.000000,,2013-02-01 06:11:00,
2013-02-01 00:32:00,9.0,-2.0,-100.00,NW,313,4.0,10.0,59,0.00,,,0.00,0.000000,,2013-02-01 06:32:00,
2013-02-01 00:42:00,9.0,-2.0,-100.00,NW,313,4.0,10.0,59,0.00,,,0.00,0.000000,,2013-02-01 06:42:00,
2013-02-01 00:52:00,9.0,-2.0,-100.00,NW,313,4.0,10.0,59,0.00,,,0.00,0.000000,,2013-02-01 06:52:00,
2013-02-01 01:02:00,9.0,-2.0,-100.00,NW,313,4.0,10.0,59,0.00,,,0.00,0.000000,,2013-02-01 07:02:00,
2013-02-01 01:12:00,9.0,-2.0,-100.00,NW,313,4.0,10.0,59,0.00,,,0.00,0.000000,,2013-02-01 07:12:00,
2013-02-01 01:32:00,9.0,-1.0,-100.00,NW,306,4.0,8.0,64,0.00,,,0.00,0.000000,,2013-02-01 07:32:00,
2013-02-01 01:42:00,9.0,-1.0,-100.00,NW,306,4.0,8.0,64,0.00,,,0.00,0.000000,,2013-02-01 07:42:00,
2013-02-01 01:52:00,9.0,-1.0,-100.00,NW,306,4.0,8.0,64,0.00,,,0.00,0.000000,,2013-02-01 07:52:00,
2013-02-01 02:01:00,9.0,-1.0,-100.00,NW,306,4.0,8.0,64,0.00,,,0.00,0.000000,,2013-02-01 08:01:00,
2013-02-01 02:11:00,9.0,-1.0,-100.00,NW,306,4.0,8.0,64,0.00,,,0.00,0.000000,,2013-02-01 08:11:00,
2013-02-01 02:32:00,8.0,0.0,-100.00,WNW,303,4.0,6.0,69,0.00,,,0.00,0.000000,,2013-02-01 08:32:00,
2013-02-01 02:42:00,8.0,0.0,-100.00,WNW,303,4.0,6.0,69,0.00,,,0.00,0.000000,,2013-02-01 08:42:00,
2013-02-01 02:52:00,8.0,0.0,-100.00,WNW,303,4.0,6.0,69,0.00,,,0.00,0.000000,,2013-02-01 08:52:00,
2013-02-01 03:01:00,8.0,0.0,-100.00,WNW,303,4.0,6.0,69,0.00,,,0.00,0.000000,,2013-02-01 09:01:00,
2013-02-01 03:11:00,8.0,0.0,-100.00,WNW,303,4.0,6.0,69,0.00,,,0.00,0.000000,,2013-02-01 09:11:00,
2013-02-01 03:32:00,8.0,-1.0,-100.00,WNW,301,5.0,9.0,67,0.00,,,0.00,0.000000,,2013-02-01 09:32:00,
2013-02-01 03:42:00,8.0,-1.0,-100.00,WNW,301,5.0,9.0,67,0.00,,,0.00,0.000000,,2013-02-01 09:42:00,
2013-02-01 03:52:00,8.0,-1.0,-100.00,WNW,301,5.0,9.0,67,0.00,,,0.00,0.000000,,2013-02-01 09:52:00,
2013-02-01 04:01:00,8.0,-1.0,-100.00,WNW,301,5.0,9.0,67,0.00,,,0.00,0.000000,,2013-02-01 10:01:00,
2013-02-01 04:11:00,8.0,-1.0,-100.00,WNW,301,5.0,9.0,67,0.00,,,0.00,0.000000,,2013-02-01 10:11:00,
2013-02-01 04:32:00,8.0,-1.0,-100.00,WNW,288,3.0,9.0,65,0.00,,,0.00,0.000000,,2013-02-01 10:32:00,
2013-02-01 04:43:00,8.0,-1.0,-100.00,WNW,288,3.0,9.0,65,0.00,,,0.00,0.000000,,2013-02-01 10:43:00,
2013-02-01 04:53:00,8.0,-1.0,-100.00,WNW,288,3.0,9.0,65,0.00,,,0.00,0.000000,,2013-02-01 10:53:00,
2013-02-01 05:02:00,8.0,-1.0,-100.00,WNW,288,3.0,9.0,65,0.00,,,0.00,0.000000,,2013-02-01 11:02:00,
2013-02-01 05:11:00,8.0,-1.0,-100.00,WNW,288,3.0,9.0,65,0.00,,,0.00,0.000000,,2013-02-01 11:11:00,
2013-02-01 05:32:00,7.0,-1.0,-100.00,West,270,3.0,5.0,69,0.00,,,0.00,0.000000,,2013-02-01 11:32:00,
2013-02-01 05:42:00,7.0,-1.0,-100.00,West,270,3.0,5.0,69,0.00,,,0.00,0.000000,,2013-02-01 11:42:00,
2013-02-01 05:53:00,7.0,-1.0,-100.00,West,270,3.0,5.0,69,0.00,,,0.00,0.000000,,2013-02-01 11:53:00,
2013-02-01 06:02:00,7.0,-1.0,-100.00,West,270,3.0,5.0,69,0.00,,,0.00,0.000000,,2013-02-01 12:02:00,
2013-02-01 06:12:00,7.0,-1.0,-100.00,West,270,3.0,5.0,69,0.00,,,0.00,0.000000,,2013-02-01 12:12:00,
2013-02-01 06:32:00,7.0,-2.0,-100.00,West,271,1.0,6.0,67,0.00,,,0.00,0.000000,,2013-02-01 12:32:00,
2013-02-01 06:42:00,7.0,-2.0,-100.00,West,271,1.0,6.0,67,0.00,,,0.00,0.000000,,2013-02-01 12:42:00,
2013-02-01 06:52:00,7.0,-2.0,-100.00,West,271,1.0,6.0,67,0.00,,,0.00,0.000000,,2013-02-01 12:52:00,
2013-02-01 07:02:00,7.0,-2.0,-100.00,West,271,1.0,6.0,67,0.00,,,0.00,0.000000,,2013-02-01 13:02:00,
2013-02-01 07:11:00,7.0,-2.0,-100.00,West,271,1.0,6.0,67,0.00,,,0.00,0.000000,,2013-02-01 13:11:00,
2013-02-01 07:33:00,7.0,0.0,-100.00,SE,136,3.0,4.0,73,0.00,,,0.00,0.000000,,2013-02-01 13:33:00,
2013-02-01 07:43:00,7.0,0.0,-100.00,SE,136,3.0,4.0,73,0.00,,,0.00,0.000000,,2013-02-01 13:43:00,
2013-02-01 07:53:00,7.0,0.0,-100.00,SE,136,3.0,4.0,73,0.00,,,0.00,0.000000,,2013-02-01 13:53:00,
2013-02-01 08:03:00,7.0,0.0,-100.00,SE,136,3.0,4.0,73,0.00,,,0.00,0.000000,,2013-02-01 14:03:00,
2013-02-01 08:11:00,7.0,0.0,-100.00,SE,136,3.0,4.0,73,0.00,,,0.00,0.000000,,2013-02-01 14:11:00,
2013-02-01 08:32:00,8.0,2.0,-100.00,SW,222,5.0,8.0,77,0.00,,,0.00,83.000000,,2013-02-01 14:32:00,
2013-02-01 08:42:00,8.0,2.0,-100.00,SW,222,5.0,8.0,77,0.00,,,0.00,83.000000,,2013-02-01 14:42:00,
2013-02-01 08:53:00,8.0,2.0,-100.00,SW,222,5.0,8.0,77,0.00,,,0.00,83.000000,,2013-02-01 14:53:00,
2013-02-01 09:02:00,8.0,2.0,-100.00,SW,222,5.0,8.0,77,0.00,,,0.00,83.000000,,2013-02-01 15:02:00,
2013-02-01 09:12:00,8.0,2.0,-100.00,SW,222,5.0,8.0,77,0.00,,,0.00,83.000000,,2013-02-01 15:12:00,
2013-02-01 09:33:00,13.0,2.0,-100.00,SW,229,7.0,12.0,60,0.00,,,0.00,297.000000,,2013-02-01 15:33:00,
2013-02-01 09:42:00,13.0,2.0,-100.00,SW,229,7.0,12.0,60,0.00,,,0.00,297.000000,,2013-02-01 15:42:00,
2013-02-01 09:52:00,13.0,2.0,-100.00,SW,229,7.0,12.0,60,0.00,,,0.00,297.000000,,2013-02-01 15:52:00,
2013-02-01 10:03:00,13.0,2.0,-100.00,SW,229,7.0,12.0,60,0.00,,,0.00,297.000000,,2013-02-01 16:03:00,
2013-02-01 10:11:00,13.0,2.0,-100.00,SW,229,7.0,12.0,60,0.00,,,0.00,297.000000,,2013-02-01 16:11:00,
2013-02-01 10:33:00,17.0,0.0,-100.00,SSW,193,4.0,11.0,47,0.00,,,0.00,502.000000,,2013-02-01 16:33:00,
2013-02-01 10:43:00,17.0,0.0,-100.00,SSW,193,4.0,11.0,47,0.00,,,0.00,502.000000,,2013-02-01 16:43:00,
2013-02-01 10:52:00,17.0,0.0,-100.00,SSW,193,4.0,11.0,47,0.00,,,0.00,502.000000,,2013-02-01 16:52:00,
2013-02-01 11:02:00,17.0,0.0,-100.00,SSW,193,4.0,11.0,47,0.00,,,0.00,502.000000,,2013-02-01 17:02:00,
2013-02-01 11:12:00,17.0,0.0,-100.00,SSW,193,4.0,11.0,47,0.00,,,0.00,502.000000,,2013-02-01 17:12:00,
2013-02-01 11:32:00,21.0,2.0,-100.00,South,186,4.0,8.0,42,0.00,,,0.00,644.000000,,2013-02-01 17:32:00,
2013-02-01 11:42:00,21.0,2.0,-100.00,South,186,4.0,8.0,42,0.00,,,0.00,644.000000,,2013-02-01 17:42:00,
2013-02-01 11:53:00,21.0,2.0,-100.00,South,186,4.0,8.0,42,0.00,,,0.00,644.000000,,2013-02-01 17:53:00,
2013-02-01 12:03:00,21.0,2.0,-100.00,South,186,4.0,8.0,42,0.00,,,0.00,644.000000,,2013-02-01 18:03:00,
2013-02-01 12:12:00,21.0,2.0,-100.00,South,186,4.0,8.0,42,0.00,,,0.00,644.000000,,2013-02-01 18:12:00,
2013-02-01 12:32:00,23.0,3.0,-100.00,SSW,205,5.0,9.0,42,0.00,,,0.00,721.000000,,2013-02-01 18:32:00,
2013-02-01 12:42:00,23.0,3.0,-100.00,SSW,205,5.0,9.0,42,0.00,,,0.00,721.000000,,2013-02-01 18:42:00,
2013-02-01 12:53:00,23.0,3.0,-100.00,SSW,205,5.0,9.0,42,0.00,,,0.00,721.000000,,2013-02-01 18:53:00,
2013-02-01 13:02:00,23.0,3.0,-100.00,SSW,205,5.0,9.0,42,0.00,,,0.00,721.000000,,2013-02-01 19:02:00,
2013-02-01 13:11:00,23.0,3.0,-100.00,SSW,205,5.0,9.0,42,0.00,,,0.00,721.000000,,2013-02-01 19:11:00,
2013-02-01 13:42:00,28.0,7.0,-100.00,South,182,4.0,11.0,40,0.00,,,0.00,713.000000,,2013-02-01 19:42:00,
2013-02-01 13:52:00,28.0,7.0,-100.00,South,182,4.0,11.0,40,0.00,,,0.00,713.000000,,2013-02-01 19:52:00,
2013-02-01 14:02:00,28.0,7.0,-100.00,South,182,4.0,11.0,40,0.00,,,0.00,713.000000,,2013-02-01 20:02:00,
2013-02-01 14:11:00,28.0,7.0,-100.00,South,182,4.0,11.0,40,0.00,,,0.00,713.000000,,2013-02-01 20:11:00,
2013-02-01 14:32:00,28.0,5.0,-100.00,SSW,194,6.0,12.0,37,0.00,,,-99.99,587.000000,,2013-02-01 20:32:00,
2013-02-01 14:42:00,28.0,5.0,-100.00,SSW,194,6.0,12.0,37,0.00,,,-99.99,587.000000,,2013-02-01 20:42:00,
2013-02-01 14:52:00,28.0,5.0,-100.00,SSW,194,6.0,12.0,37,0.00,,,-99.99,587.000000,,2013-02-01 20:52:00,
2013-02-01 15:02:00,28.0,5.0,-100.00,SSW,194,6.0,12.0,37,0.00,,,-99.99,587.000000,,2013-02-01 21:02:00,
2013-02-01 15:12:00,28.0,5.0,-100.00,SSW,194,6.0,12.0,37,0.00,,,-99.99,587.000000,,2013-02-01 21:12:00,
2013-02-01 15:32:00,29.0,5.0,-100.00,SSW,196,6.0,10.0,36,0.00,,,0.00,388.000000,,2013-02-01 21:32:00,
2013-02-01 15:42:00,29.0,5.0,-100.00,SSW,196,6.0,10.0,36,0.00,,,0.00,388.000000,,2013-02-01 21:42:00,
2013-02-01 15:52:00,29.0,5.0,-100.00,SSW,196,6.0,10.0,36,0.00,,,0.00,388.000000,,2013-02-01 21:52:00,
2013-02-01 16:02:00,29.0,5.0,-100.00,SSW,196,6.0,10.0,36,0.00,,,0.00,388.000000,,2013-02-01 22:02:00,
2013-02-01 16:11:00,29.0,5.0,-100.00,SSW,196,6.0,10.0,36,0.00,,,0.00,388.000000,,2013-02-01 22:11:00,
2013-02-01 16:32:00,28.0,5.0,-100.00,SSE,155,5.0,9.0,36,0.00,,,0.00,124.000000,,2013-02-01 22:32:00,
2013-02-01 16:42:00,28.0,5.0,-100.00,SSE,155,5.0,9.0,36,0.00,,,0.00,124.000000,,2013-02-01 22:42:00,
2013-02-01 16:52:00,28.0,5.0,-100.00,SSE,155,5.0,9.0,36,0.00,,,0.00,124.000000,,2013-02-01 22:52:00,
2013-02-01 17:01:00,28.0,5.0,-100.00,SSE,155,5.0,9.0,36,0.00,,,0.00,124.000000,,2013-02-01 23:01:00,
2013-02-01 17:11:00,28.0,5.0,-100.00,SSE,155,5.0,9.0,36,0.00,,,0.00,124.000000,,2013-02-01 23:11:00,
2013-02-01 17:32:00,28.0,7.0,-100.00,SE,128,5.0,8.0,40,0.00,,,0.00,34.000000,,2013-02-01 23:32:00,
2013-02-01 17:42:00,28.0,7.0,-100.00,SE,128,5.0,8.0,40,0.00,,,0.00,34.000000,,2013-02-01 23:42:00,
2013-02-01 17:52:00,28.0,7.0,-100.00,SE,128,5.0,8.0,40,0.00,,,0.00,34.000000,,2013-02-01 23:52:00,
2013-02-01 18:02:00,28.0,7.0,-100.00,SE,128,5.0,8.0,40,0.00,,,0.00,34.000000,,2013-02-02 00:02:00,
2013-02-01 18:11:00,28.0,7.0,-100.00,SE,128,5.0,8.0,40,0.00,,,0.00,34.000000,,2013-02-02 00:11:00,
2013-02-01 18:32:00,28.0,10.0,-100.00,ESE,113,5.0,8.0,46,0.00,,,0.00,2.000000,,2013-02-02 00:32:00,
2013-02-01 18:42:00,28.0,10.0,-100.00,ESE,113,5.0,8.0,46,0.00,,,0.00,2.000000,,2013-02-02 00:42:00,
2013-02-01 18:52:00,28.0,10.0,-100.00,ESE,113,5.0,8.0,46,0.00,,,0.00,2.000000,,2013-02-02 00:52:00,
2013-02-01 19:02:00,28.0,10.0,-100.00,ESE,113,5.0,8.0,46,0.00,,,0.00,2.000000,,2013-02-02 01:02:00,
2013-02-01 19:11:00,28.0,10.0,-100.00,ESE,113,5.0,8.0,46,0.00,,,0.00,2.000000,,2013-02-02 01:11:00,
2013-02-01 19:32:00,28.0,12.0,-100.00,ESE,119,5.0,9.0,51,0.00,,,0.00,0.000000,,2013-02-02 01:32:00,
2013-02-01 19:42:00,28.0,12.0,-100.00,ESE,119,5.0,9.0,51,0.00,,,0.00,0.000000,,2013-02-02 01:42:00,
2013-02-01 19:52:00,28.0,12.0,-100.00,ESE,119,5.0,9.0,51,0.00,,,0.00,0.000000,,2013-02-02 01:52:00,
2013-02-01 20:01:00,28.0,12.0,-100.00,ESE,119,5.0,9.0,51,0.00,,,0.00,0.000000,,2013-02-02 02:01:00,
2013-02-01 20:11:00,28.0,12.0,-100.00,ESE,119,5.0,9.0,51,0.00,,,0.00,0.000000,,2013-02-02 02:11:00,
2013-02-01 20:42:00,28.0,13.0,-100.00,NE,56,2.0,8.0,53,0.00,,,0.00,0.000000,,2013-02-02 02:42:00,
2013-02-01 20:52:00,28.0,13.0,-100.00,NE,56,2.0,8.0,53,0.00,,,0.00,0.000000,,2013-02-02 02:52:00,
2013-02-01 21:02:00,28.0,13.0,-100.00,NE,56,2.0,8.0,53,0.00,,,0.00,0.000000,,2013-02-02 03:02:00,
2013-02-01 21:11:00,28.0,13.0,-100.00,NE,56,2.0,8.0,53,0.00,,,0.00,0.000000,,2013-02-02 03:11:00,
2013-02-01 21:42:00,29.0,13.0,-100.00,SSE,165,4.0,9.0,50,0.00,,,0.00,0.000000,,2013-02-02 03:42:00,
2013-02-01 21:52:00,29.0,13.0,-100.00,SSE,165,4.0,9.0,50,0.00,,,0.00,0.000000,,2013-02-02 03:52:00,
2013-02-01 22:01:00,29.0,13.0,-100.00,SSE,165,4.0,9.0,50,0.00,,,0.00,0.000000,,2013-02-02 04:01:00,
2013-02-01 22:11:00,29.0,13.0,-100.00,SSE,165,4.0,9.0,50,0.00,,,0.00,0.000000,,2013-02-02 04:11:00,
2013-02-01 22:32:00,28.0,12.0,-100.00,SSE,154,5.0,7.0,50,0.00,,,0.00,0.000000,,2013-02-02 04:32:00,
2013-02-01 22:42:00,28.0,12.0,-100.00,SSE,154,5.0,7.0,50,0.00,,,0.00,0.000000,,2013-02-02 04:42:00,
2013-02-01 22:52:00,28.0,12.0,-100.00,SSE,154,5.0,7.0,50,0.00,,,0.00,0.000000,,2013-02-02 04:52:00,
2013-02-01 23:03:00,28.0,12.0,-100.00,SSE,154,5.0,7.0,50,0.00,,,0.00,0.000000,,2013-02-02 05:03:00,
2013-02-01 23:12:00,28.0,12.0,-100.00,SSE,154,5.0,7.0,50,0.00,,,0.00,0.000000,,2013-02-02 05:12:00,
2013-02-01 23:33:00,29.0,12.0,-100.00,South,174,7.0,11.0,48,0.00,,,-99.99,0.000000,,2013-02-02 05:33:00,
2013-02-01 23:42:00,29.0,12.0,-100.00,South,174,7.0,11.0,48,0.00,,,-99.99,0.000000,,2013-02-02 05:42:00,
2013-02-01 23:52:00,29.0,12.0,-100.00,South,174,7.0,11.0,48,0.00,,,-99.99,0.000000,,2013-02-02 05:52:00,